Change the Weather History Date:

Wednesday, January 18, 2012

  Actual Average (KUIN) Record (KUIN)
Temperature  
Mean Temperature 20 °F 26 °F  
Max Temperature 30 °F 34 °F 64 °F (1951)
Min Temperature 11 °F 18 °F -16 °F (1930)
Degree Days  
Heating Degree Days 44 39  
Month to date heating degree days 698  
Since 1 July heating degree days 2889  
Cooling Degree Days 0 0  
Month to date cooling degree days 0  
Year to date cooling degree days 0  
Moisture  
Dew Point 12 °F    
Average Humidity 70    
Maximum Humidity 88    
Minimum Humidity 51    
Precipitation  
Precipitation 0.00 in 0.05 in 1.10 in (1996)
Month to date precipitation 0.91  
Year to date precipitation 0.91  
Sea Level Pressure  
Sea Level Pressure 30.23 in    
Wind  
Wind Speed 5 mph (South)    
Max Wind Speed 15 mph    
Max Gust Speed 24 mph    
Visibility 10 miles    
Events      
T = Trace of Precipitation, MM = Missing Value Source: NWS Daily Summary

Daily Weather History Graph

Daily Weather History Graph

Search for Another Location

Airport or City:

Trip Planner

Search our weather history database for the weather conditions in past years. The results will help you decide how hot, cold, wet, or windy it might be!

Date:

Astronomy

Jan. 18, 2012 Rise Set
Actual Time 7:21 AM CST 5:06 PM CST
Civil Twilight 6:51 AM CST 5:35 PM CST
Nautical Twilight 6:18 AM CST 6:08 PM CST
Astronomical Twilight 5:46 AM CST 6:40 PM CST
Moon 2:50 AM CST (1/18) 12:45 PM CST (1/18)
Length of Visible Light 10h 43m
Length of Day
9h 45m
Waning Crescent, 24% of the Moon is Illuminated
Jan 18
Waning Crescent
Jan 23
New
Jan 30
First Quarter
Feb 7
Full
Feb 14
Last Quarter

Hourly Weather History & Observations

Time (CST) Temp. Windchill Dew Point Humidity Pressure Visibility Wind Dir Wind Speed Gust Speed Precip Events Conditions
12:15 AM 17.2 °F 10.2 °F 9.5 °F 72% 30.37 in 10.0 mi WNW 4.6 mph - N/A   Clear
12:35 AM 17.2 °F 10.2 °F 8.8 °F 69% 30.37 in 10.0 mi WNW 4.6 mph - N/A   Clear
12:55 AM 16.7 °F 8.3 °F 8.6 °F 70% 30.37 in 10.0 mi WNW 5.8 mph - N/A   Clear
1:15 AM 16.5 °F 9.4 °F 8.6 °F 71% 30.37 in 10.0 mi WNW 4.6 mph - N/A   Clear
1:35 AM 15.8 °F 8.6 °F 8.6 °F 73% 30.37 in 10.0 mi NW 4.6 mph - N/A   Clear
1:55 AM 15.8 °F 10.2 °F 9.1 °F 75% 30.37 in 10.0 mi NW 3.5 mph - N/A   Clear
2:15 AM 15.6 °F 8.3 °F 9.3 °F 76% 30.37 in 10.0 mi NW 4.6 mph - N/A   Clear
2:35 AM 15.4 °F 8.1 °F 8.6 °F 74% 30.36 in 10.0 mi NNW 4.6 mph - N/A   Clear
2:55 AM 14.9 °F - 8.4 °F 76% 30.36 in 10.0 mi Calm Calm - N/A   Clear
3:15 AM 14.2 °F 8.4 °F 7.7 °F 75% 30.34 in 10.0 mi NNW 3.5 mph - N/A   Clear
3:35 AM 13.8 °F 8.0 °F 7.5 °F 76% 30.33 in 10.0 mi North 3.5 mph - N/A   Clear
3:55 AM 13.8 °F - 7.5 °F 76% 30.32 in 10.0 mi Calm Calm - N/A   Clear
4:15 AM 13.3 °F - 7.9 °F 79% 30.31 in 10.0 mi Calm Calm - N/A   Clear
4:35 AM 13.6 °F - 8.8 °F 81% 30.32 in 10.0 mi Calm Calm - N/A   Clear
4:55 AM 12.4 °F - 7.9 °F 82% 30.33 in 10.0 mi Calm Calm - N/A   Clear
5:15 AM 12.9 °F - 8.4 °F 82% 30.33 in 10.0 mi Calm Calm - N/A   Clear
5:35 AM 13.1 °F - 9.5 °F 86% 30.33 in 10.0 mi Calm Calm - N/A   Clear
5:55 AM 12.7 °F 5.0 °F 9.3 °F 86% 30.34 in 10.0 mi SW 4.6 mph - N/A   Clear
6:15 AM 13.1 °F 5.4 °F 8.4 °F 82% 30.35 in 10.0 mi SW 4.6 mph - N/A   Clear
6:35 AM 13.5 °F 7.5 °F 8.8 °F 82% 30.34 in 10.0 mi SSW 3.5 mph - N/A   Clear
6:55 AM 13.1 °F 7.1 °F 8.8 °F 83% 30.33 in 10.0 mi SW 3.5 mph - N/A   Clear
7:15 AM 13.1 °F - 8.4 °F 82% 30.33 in 10.0 mi Calm Calm - N/A   Clear
7:35 AM 11.7 °F - 8.4 °F 87% 30.31 in 10.0 mi Calm Calm - N/A   Clear
7:55 AM 12.6 °F - 9.5 °F 88% 30.31 in 10.0 mi Calm Calm - N/A   Clear
8:15 AM 14.4 °F - 10.2 °F 84% 30.30 in 10.0 mi Calm Calm - N/A   Clear
8:35 AM 14.9 °F 9.2 °F 11.1 °F 85% 30.30 in 10.0 mi ESE 3.5 mph - N/A   Clear
8:55 AM 16.5 °F 8.1 °F 11.5 °F 81% 30.30 in 10.0 mi SSE 5.8 mph - N/A   Clear
9:15 AM 17.6 °F 9.3 °F 12.9 °F 82% 30.29 in 10.0 mi SSE 5.8 mph - N/A   Clear
9:35 AM 18.7 °F 7.8 °F 13.1 °F 79% 30.28 in 10.0 mi SE 9.2 mph - N/A   Clear
9:55 AM 19.9 °F 10.1 °F 14.0 °F 78% 30.28 in 10.0 mi SSE 8.1 mph - N/A   Clear
10:15 AM 21.4 °F 11.1 °F 13.8 °F 73% 30.28 in 10.0 mi South 9.2 mph - N/A   Clear
10:35 AM 22.1 °F 12.8 °F 14.2 °F 72% 30.28 in 10.0 mi SSW 8.1 mph - N/A   Clear
10:55 AM 23.7 °F 13.3 °F 14.9 °F 69% 30.27 in 10.0 mi South 10.4 mph - N/A   Clear
11:15 AM 24.3 °F 14.6 °F 14.2 °F 65% 30.25 in 10.0 mi South 9.2 mph - N/A   Clear
11:35 AM 25.2 °F 14.4 °F 13.8 °F 62% 30.23 in 10.0 mi South 11.5 mph 16.1 mph N/A   Clear
11:55 AM 25.3 °F 15.3 °F 14.7 °F 64% 30.23 in 10.0 mi SSW 10.4 mph - N/A   Clear
12:15 PM 24.8 °F 15.3 °F 14.5 °F 65% 30.21 in 10.0 mi South 9.2 mph - N/A   Scattered Clouds
12:35 PM 26.8 °F 16.5 °F 14.4 °F 60% 30.19 in 10.0 mi South 11.5 mph - N/A   Mostly Cloudy
12:55 PM 28.4 °F 19.1 °F 14.9 °F 57% 30.16 in 10.0 mi South 10.4 mph 17.3 mph N/A   Mostly Cloudy
1:15 PM 28.9 °F 19.2 °F 14.5 °F 55% 30.13 in 10.0 mi South 11.5 mph 16.1 mph N/A   Mostly Cloudy
1:35 PM 28.8 °F 19.0 °F 14.7 °F 56% 30.11 in 10.0 mi South 11.5 mph - N/A   Scattered Clouds
1:55 PM 28.8 °F 19.5 °F 14.5 °F 55% 30.11 in 10.0 mi South 10.4 mph - N/A   Scattered Clouds
2:15 PM 29.5 °F 20.4 °F 15.3 °F 55% 30.10 in 10.0 mi South 10.4 mph - N/A   Scattered Clouds
2:35 PM 30.2 °F 22.6 °F 14.9 °F 53% 30.08 in 10.0 mi South 8.1 mph - N/A   Scattered Clouds
2:55 PM 30.4 °F 22.2 °F 14.4 °F 51% 30.08 in 10.0 mi South 9.2 mph - N/A   Clear
3:15 PM 30.2 °F 21.3 °F 15.1 °F 53% 30.06 in 10.0 mi South 10.4 mph 17.3 mph N/A   Clear
3:35 PM 30.2 °F 19.8 °F 16.0 °F 56% 30.05 in 10.0 mi South 13.8 mph - N/A   Clear
3:55 PM 30.0 °F 19.5 °F 16.2 °F 56% 30.04 in 10.0 mi SSE 13.8 mph 18.4 mph N/A   Scattered Clouds
4:15 PM 30.2 °F 19.3 °F 15.8 °F 55% 30.02 in 10.0 mi SSE 15.0 mph - N/A   Mostly Cloudy
4:35 PM 30.0 °F 19.1 °F 15.4 °F 55% 29.99 in 10.0 mi SSE 15.0 mph 19.6 mph N/A   Scattered Clouds
4:55 PM 30.2 °F 19.3 °F 15.3 °F 54% 29.97 in 10.0 mi SSE 15.0 mph 24.2 mph N/A   Clear
5:15 PM 29.5 °F 18.8 °F 15.6 °F 56% 29.98 in 10.0 mi South 13.8 mph - N/A   Clear
5:35 PM 29.7 °F 22.8 °F 14.9 °F 54% 30.00 in 10.0 mi South 6.9 mph - N/A   Clear
5:55 PM 29.3 °F 20.8 °F 15.3 °F 56% 30.00 in 10.0 mi South 9.2 mph - N/A   Clear
6:15 PM 28.9 °F 21.1 °F 15.8 °F 58% 29.99 in 10.0 mi South 8.1 mph - N/A   Clear
6:35 PM 28.2 °F 23.1 °F 16.5 °F 62% 29.99 in 10.0 mi South 4.6 mph - N/A   Clear
6:55 PM 26.6 °F 20.0 °F 16.5 °F 66% 29.98 in 10.0 mi SSE 5.8 mph - N/A   Clear
7:15 PM 25.5 °F 18.7 °F 16.7 °F 69% 29.97 in 10.0 mi South 5.8 mph - N/A   Clear
7:35 PM 26.2 °F 20.7 °F 16.5 °F 67% 29.95 in 10.0 mi South 4.6 mph - N/A   Clear
7:55 PM 26.4 °F 19.8 °F 16.3 °F 66% 29.95 in 10.0 mi South 5.8 mph - N/A   Clear
8:15 PM 26.4 °F 18.9 °F 16.3 °F 66% 29.95 in 10.0 mi South 6.9 mph - N/A   Clear
8:35 PM 27.3 °F 19.9 °F 15.6 °F 61% 29.95 in 10.0 mi South 6.9 mph - N/A   Clear
8:55 PM 28.2 °F 20.2 °F 14.9 °F 57% 29.94 in 10.0 mi South 8.1 mph - N/A   Clear
9:15 PM 29.1 °F 20.0 °F 14.5 °F 55% 29.94 in 10.0 mi South 10.4 mph - N/A   Clear
9:35 PM 29.3 °F 20.2 °F 14.7 °F 55% 29.93 in 10.0 mi South 10.4 mph - N/A   Clear
9:55 PM 29.3 °F 21.5 °F 14.9 °F 55% 29.93 in 10.0 mi South 8.1 mph - N/A   Clear
10:15 PM 28.8 °F 21.7 °F 15.1 °F 57% 29.93 in 10.0 mi South 6.9 mph - N/A   Clear
10:35 PM 29.8 °F 23.0 °F 15.8 °F 56% 29.94 in 10.0 mi SW 6.9 mph - N/A   Clear
10:55 PM 30.2 °F 23.4 °F 16.3 °F 56% 29.94 in 10.0 mi SSW 6.9 mph - N/A   Clear
11:15 PM 31.6 °F 25.1 °F 16.2 °F 53% 29.93 in 10.0 mi SSW 6.9 mph - N/A   Clear
11:35 PM 31.1 °F 26.4 °F 16.9 °F 56% 29.92 in 10.0 mi South 4.6 mph - N/A   Clear
11:55 PM 29.8 °F 23.0 °F 18.0 °F 61% 29.91 in 10.0 mi South 6.9 mph - N/A   Clear